Home > Weather > Providence > Past weeks

Flag for U.S.A. Weather for the Past 2 Weeks in Providence, Rhode Island, U.S.A.

Now
25 °F

Clear.


Feels Like: 18 °F
Forecast: 15 / 28 °F
Wind: 6 mph from Northwest

Location: Green State Airport

Current Time: Feb 11, 2016 at 3:45:46 AM

Latest Report: Feb 11, 2016 at 2:51 AM


Visibility: 10 mi

Pressure: 29.67 "Hg

Humidity: 72%

Dew point: 17 °F

Location of ProvidenceLocation

Historic Weather in Providence — Graph

°F

Providence Temperature Yesterday

Maximum temperature yesterday: 35 °F (at 4:51 PM)
Minimum temperature yesterday: 19 °F (at 12:51 AM)
Average temperature yesterday: 29 °F

High & Low Weather Summary for the Past Weeks

 TemperatureHumidityPressure
High66 °F (Feb 1, 12:51 PM)100% (Jan 29, 2:51 AM)30.41 "Hg (Jan 29, 2:51 AM)
Low17 °F (Feb 6, 3:51 AM)30% (Feb 1, 4:51 PM)29.37 "Hg (Jan 29, 12:51 PM)
Average37 °F71%29.93 "Hg
* Reported Jan 27 2:51 AM — Feb 11 2:51 AM, Providence, Weather by CustomWeather, © 2016

Note: Actual official high and low records may vary slightly from our data, if they occured in-between our weather recording intervals... More about our weather records

Advertising

Providence Weather History for the Previous 24 Hours

 ConditionsComfort  
Time TempWeatherWind HumidityBarometerVisibility
2:51 AM
Thu, Feb 11
25 °FClear.6 mph72%29.67 "Hg10 mi
1:51 AM27 °FClear.5 mph69%29.67 "Hg10 mi
12:51 AM28 °FClear.6 mph66%29.68 "Hg10 mi
11:51 PM
Wed, Feb 10
30 °FPassing clouds.7 mph64%29.68 "Hg10 mi
10:51 PM32 °FPassing clouds.8 mph61%29.68 "Hg10 mi
9:51 PM31 °FPassing clouds.7 mph76%29.66 "Hg10 mi
8:51 PM30 °FPassing clouds.7 mph85%29.65 "Hg7 mi
7:51 PM31 °FPassing clouds.7 mph82%29.65 "Hg7 mi
6:51 PM32 °FPartly cloudy.3 mph82%29.64 "Hg8 mi
5:51 PM34 °FPassing clouds.6 mph76%29.62 "Hg10 mi
4:51 PM35 °FMostly cloudy.7 mph72%29.59 "Hg10 mi
3:51 PM34 °FPartly sunny.3 mph88%29.57 "Hg8 mi
2:51 PM33 °FLight snow. Fog.No wind92%29.56 "Hg3 mi
1:51 PM33 °FLight snow. Fog.3 mph92%29.55 "Hg1 mi
12:51 PM33 °FLight snow. Fog.No wind88%29.56 "Hg2 mi
11:51 AM34 °FLight snow. Low clouds.No wind82%29.58 "Hg2 mi
10:51 AM32 °FLight snow. Ice fog.No wind85%29.60 "Hg3 mi
9:54 AM30 °FLight snow. Ice fog.No wind89%29.62 "Hg2 mi
8:58 AM28 °FLight snow. Ice fog.No wind89%29.63 "Hg2 mi
7:51 AM26 °FLight snow. Ice fog.No wind88%29.62 "Hg1 mi
6:51 AM25 °FLight snow. Ice fog.No wind85%29.62 "Hg5 mi
5:51 AM24 °FOvercast.No wind88%29.62 "Hg10 mi
4:51 AM24 °FOvercast.No wind84%29.62 "Hg10 mi
3:51 AM23 °FOvercast.No wind85%29.61 "Hg9 mi
Weather by CustomWeather, © 2016

See weather overviewHow to use our weather pages